Regional Weather Roundup
Issued by NWS

Home | Current Version | Previous Version | Graphics & Text | Print | Product List | Glossary On
Versions: 1 2 3 4 5 6 7 8 9 10 11 12 13 14 15 16 17 18 19 20 21 22 23 24 25 26 27 28 29 30 31 32 33 34 35 36 37 38 39 40 41 42 43 44 45 46 47 48 49 50
000
ASUS43 KMKX 232300
RWRWI

WISCONSIN REGIONAL WEATHER ROUNDUP
NATIONAL WEATHER SERVICE MILWAUKEE/SULLIVAN WI
600 PM CDT SAT SEP 23 2017

NOTE: "FAIR" INDICATES FEW OR NO CLOUDS BELOW 12,000 FEET WITH NO
SIGNIFICANT WEATHER AND/OR OBSTRUCTIONS TO VISIBILITY.

WIZ001-002-006>008-014>016-023>028-240000-
NORTHWEST WISCONSIN

CITY           SKY/WX    TMP DP  RH WIND       PRES   REMARKS
SUPERIOR ARPT  CLOUDY    78  71  80 NW6       29.94R
ASHLAND        CLOUDY    82  72  71 SW5       29.95R HX  87
HAYWARD        CLOUDY    81  70  69 S5        29.98R HX  84
SIREN          CLOUDY    82  70  66 CALM      29.95F HX  86
CUMBERLAND     PTSUNNY   79  68  69 S5        29.97F HX  81
RICE LAKE      MOCLDY    83  67  58 S5        29.98F HX  86
CHETEK         MOCLDY    83  71  67 MISG      29.97S HX  87
LADYSMITH      PTCLDY    83  67  58 S7        30.01S HX  86
EAU CLAIRE     NOT AVBL
MENOMONIE      MOSUNNY   84  68  59 SE6       29.96F HX  87
NEW RICHMOND   PTSUNNY   82  67  59 S3        29.95F HX  85
OSCEOLA        PTSUNNY   83  70  64 SE3       29.96F HX  87
$$

WIZ003>005-009-010-017-018-240000-
NORTH CENTRAL WISCONSIN

CITY           SKY/WX    TMP DP  RH WIND       PRES   REMARKS
MANITOWISH WTR NOT AVBL
ARBOR VITAE    CLEAR     82  68  61 SW7       30.03R HX  85
WOODRUFF       CLEAR     82  68  61 SW7       30.03R HX  85
RHINELANDER    CLEAR     81  66  60 SW7       30.05R HX  83
EAGLE RIVER    CLEAR     81  62  51 SW7       30.03S HX  82
LAND O LAKES   CLEAR     83  64  53 S8        30.04R HX  84
PHILLIPS       CLOUDY    82  67  60 SW8       30.01R HX  85
TOMAHAWK       CLEAR     82  64  53 CALM      30.03S HX  83
MEDFORD        CLEAR     82  65  55 SW8       30.02S HX  84
MERRILL        CLEAR     85  66  52 SW6       30.03R HX  87
$$

WIZ029-030-035-036-043>047-240000-
CENTRAL WISCONSIN

CITY           SKY/WX    TMP DP  RH WIND       PRES   REMARKS
WAUSAU         PTCLDY    85  65  51 SW9       30.01S HX  86
MOSINEE        PTCLDY    82  66  57 S10G17    30.04R HX  85
MARSHFIELD     CLEAR     84  64  50 S7        30.02S HX  85
STEVENS POINT  PTCLDY    85  64  49 SW7       30.03S HX  87
WAUPACA        CLEAR     88  65  46 CALM      30.02S HX  90
WAUTOMA        CLEAR     87  65  47 S3        30.02R HX  89
WISC RAPIDS    CLEAR     87  67  51 S3        30.03S HX  90
CAMP DOUGLAS   NOT AVBL
$$

WIZ011>013-019>022-031-037>040-048>050-240000-
NORTHEAST WISCONSIN

CITY           SKY/WX    TMP DP  RH WIND       PRES   REMARKS
ANTIGO         PTCLDY    83  66  57 S7        30.05S HX  85
SHAWANO        CLOUDY    87  67  50 CALM      30.01S HX  89
OCONTO         CLEAR     85  68  55 S3        30.01S HX  89
STURGEON BAY   CLEAR     81  67  62 S12       30.04R HX  83
GREEN BAY      CLEAR     86  66  51 S7        30.02S HX  88
MANITOWOC      CLEAR     79  66  64 S10       30.05R HX  81
APPLETON       PTCLDY    86  57  37 S8        30.02R HX  85
CLINTONVILLE   CLOUDY    88  64  45 S3        30.02R HX  89
OSHKOSH        CLEAR     83  70  64 S5        30.03R HX  87
$$

WIZ032>034-041-042-053>061-240000-
SOUTHWEST WISCONSIN

CITY           SKY/WX    TMP DP  RH WIND       PRES   REMARKS
LA CROSSE      CLEAR     92  63  38 S12       29.96S HX  93
SPARTA         CLEAR     87  65  47 S7        30.00S HX  89
VIROQUA        CLEAR     88  64  45 S6        30.02S HX  89
BOSCOBEL       CLEAR     92  62  36 S8        29.99R HX  92
PRAIRIE DU CHI CLEAR     90  59  34 SE7       29.97S HX  89
PLATTEVILLE    CLEAR     90  61  38 S8        30.02S HX  90
$$

WIZ056-057-062-063-064-067-068-240000-
SOUTH CENTRAL WISCONSIN

CITY           SKY/WX    TMP DP  RH WIND       PRES   REMARKS
REEDSBURG      CLEAR     89  63  40 S3        30.00S HX  90
BARABOO/DELLS  NOT AVBL
LONE ROCK      CLEAR     88  63  43 S6        30.00R HX  89
MINERAL POINT  CLEAR     90  59  35 S5        30.03S HX  89
MADISON        CLEAR     88  64  44 S7        30.02R HX  89
MIDDLETON      CLEAR     91  58  32 S9        30.03R HX  89
WATERTOWN      CLEAR     88  64  44 S5        30.02S HX  89
MONROE         CLEAR     88  59  37 S9        30.04R HX  87
JANESVILLE     PTCLDY    91  55  29 S6        30.01S HX  89
$$

WIZ051-052-058>065-066-070>072-240000-
SOUTHEAST WISCONSIN

CITY           SKY/WX    TMP DP  RH WIND       PRES   REMARKS
MILWAUKEE      CLEAR     84  67  56 SE10      30.04S HX  86
WAUKESHA       CLEAR     84  63  48 SE12G17   30.05S HX  85
MILWAUKEE/TIMM CLEAR     86  57  37 SE12      30.05R HX  85
RACINE         CLEAR     82  67  60 SE8       30.06S HX  84
BURLINGTON     CLEAR     87  66  49 SE7       30.04R HX  89
KENOSHA        CLEAR     84  65  52 SE9       30.05S HX  86
FOND DU LAC    CLEAR     86  66  51 S9        30.03S HX  88
SHEBOYGAN      CLEAR     82  69  64 S7        30.05R HX  85
WEST BEND        N/A     84  63  48 SE7       30.05S HX  85
JUNEAU         CLEAR     86  66  51 CALM      30.04F HX  88
$$

LSZ147-162-240000-
LAKE SUPERIOR

STATION/POSITION TIME  TEMP    WIND        PRES    WAVE
                       AIR SEA DIR/SP/G            HT/PER
                 (UTC) (F)     (DEG/KT/KT) (MB)    (FT/S)
W MID LAKE BUOY  2150   66 56  340/  2/  2 1013.0R   1/ 4
DEVILS ISLAND    2200   77     220/  2/  3 1013.1R
PORT WING        2040   91     280/  1/  2 1013.2S
SAXON HARBOR     2230   85     190/  4/  6 1013.2R
$$

LMZ867-665-643>646-240000-
LAKE MICHIGAN

STATION/POSITION TIME  TEMP    WIND        PRES    WAVE
                       AIR SEA DIR/SP/G            HT/PER
                 (UTC) (F)     (DEG/KT/KT) (MB)    (FT/S)
S GREEN BAY BUOY 2230   76 70  180/  6/  6 1016.2S
N MID LAKE BUOY  2150   70 67  200/ 12/ 12 1017.0F   2/ 4
NORTHPORT PIER   2240   79     150/  4/  9 1015.9F
KEWAUNEE LAKESHO 2230   70     170/ 11/ 13 1016.3F
SHEBOYGAN LAKESH 2200   75     180/ 15/ 16 1016.8S
PORT WASHINGTON  2230   77     180/  2/  6 1017.9S
MILWAUKEE LAKESH 2240   71     100/  2/  3   N/A
S MID LAKE BUOY  2150   76 73  170/  2/  2 1017.7F   0
KENOSHA   LAKESH 2200   78     170/  8/  9 1016.9
$$

TC  - TEMPERATURE IN CELSIUS
VSB - VISIBILITY IN STATUTE MILES
WCI - WIND CHILL INDEX
HX  - HEAT INDEX




USA.gov is the U.S. government's official web portal to all federal, state and local government web resources and services.